DECAYED

COSMOS 2251 DEB, 37085 (Decayed)

Orbit data source: Space-Track

COSMOS 2251 DEB, 37085 was space debris in LEO originally from a launch on Wed, 16 Jun 1993 UTC launched from the Plesetsk Missile And Space Complex (PKMTR). The debris from Iridium 33, an American commercial communications satellite, has been tracked extensively since its accidental collision with the defunct Russian satellite Cosmos 2251 in 2009. This event, occurring at high speed in low Earth orbit (LEO), generated thousands of pieces of space debris, significantly increasing the risk of further collisions. The Iridium 33 debris cloud has impacted space traffic management and orbital debris mitigation strategies, making it a subject of ongoing study in space situational awareness.

Not visible in the next 10 days
Identifier
37085, 1993-036BFF
Orbit
Decayed
Country
Flag of CISCIS
Related business
Manufacturer
Unknown
Mission
Decayed spacecraft
Bus & Motor
Unknown
Mass
Unknown
Launch date (UTC)
1993-06-16 (33 years ago)
Launch vehicle
Unknown
Launch site
Plesetsk Missile And Space Complex (PKMTR)
Object type
Payload
Rocket body
Debris
Shape & HBR
Unknown shape, 0.1 m
Radar Cross Section
Small (<0.1 m²)

Expand to show TLE details & history
Last TLE update: 5 months ago

TLE from 5 months ago
0 COSMOS 2251 DEB
1 37085U 93036BFF 26027.91079371  .00212249  00000-0  31718-2 0  9990
2 37085  73.9425 114.7050 0026783 308.0682  51.8116 15.53797779678515
Epoch: 2026-01-27T21:51Z
TLE epoch observation values (Epoch: 2026-01-27T21:51:32.576Z)
Latitude
-0.00003°
Longitude
19.63385°
Altitude
397.191 km
Speed
7.679 km/s
True Right ascension
07h 38m 49s
True Declination
0° 00' 00"
Sunlit
Object was in full shadow at epoch
Visualization orbit readout
Latitude
Unknown
Longitude
Unknown
Altitude
Unknown
Speed
Unknown
Apparent Right ascension
Unknown
Apparent Declination
Unknown
Sunlit
N/A
Visualization observer readout
Local Sidereal Time
00:15:50
Azimuth
Unknown
Elevation
Unknown
Doppler factor
Unknown
Orbital elements
Apogee altitude
421.316 km
Perigee altitude
384.991 km
Semi-major axis
6,781.29 km
Eccentricity
0.00268
Inclination
73.9425°
RAAN
114.705°
Arg. of periapsis
308.0682°
True anomaly
52.05333°
Mean anomaly
51.8116°
Eccentric anomaly
51.93241°
Mean motion
3.88664 °/min
Orbital period
92.62 mins
BSTAR
0.0031718
Loading maneuver chart data...
Computing Atmospheric mass density...

Documentation

Showing up to 5 results
|